Astoria, OR

12:29 AM PDT on June 26, 2017 (GMT -0700)
Astoria Regional

Weather History for KAST - February, 2014

Change the Weather History Date:

Friday, February 28, 2014

  Actual Average Record
Temperature  
Mean Temperature 53 °F 45 °F  
Max Temperature 64 °F 53 °F 72 °F (1968)
Min Temperature 42 °F 38 °F 22 °F (1960)
Degree Days  
Heating Degree Days 12 20  
Month to date heating degree days 627 580  
Since 1 July heating degree days 3429 3342  
Cooling Degree Days 0 0  
Month to date cooling degree days 0 0  
Year to date cooling degree days 0 0  
Growing Degree Days 2 (Base 50)    
Moisture  
Dew Point 41 °F    
Average Humidity 69    
Maximum Humidity 92    
Minimum Humidity 46    
Precipitation  
Precipitation 0.00 in 0.25 in 1.40 in (2013)
Month to date precipitation 7.40 7.19  
Year to date precipitation 13.76 17.39  
Sea Level Pressure  
Sea Level Pressure 29.54 in    
Wind  
Wind Speed 9 mph (ENE)    
Max Wind Speed 21 mph    
Max Gust Speed 27 mph    
Visibility 10 miles    
Events      
T = Trace of Precipitation, MM = Missing Value Source: NWS Daily Summary

Daily Weather History Graph

Daily Weather History Graph

Search for Another Location

Airport or City:

Trip Planner

Search our weather history database for the weather conditions in past years. The results will help you decide how hot, cold, wet, or windy it might be!

Date:

Astronomy

Feb. 28, 2014 Rise Set
Actual Time 6:56 AM PST 6:00 PM PST
Civil Twilight 6:26 AM PST 6:30 PM PST
Nautical Twilight 5:51 AM PST 7:05 PM PST
Astronomical Twilight 5:16 AM PST 7:40 PM PST
Moon 6:14 AM PST (2/28) 5:45 PM PST (2/28)
Length of Visible Light 12h 04m
Length of Day
11h 04m
Waning Crescent, 0% of the Moon is Illuminated
Feb 28
Waning Crescent
Mar 1
New
Mar 8
First Quarter
Mar 16
Full
Mar 23
Last Quarter

Hourly Weather History & Observations

Time (PST) Temp. Windchill Dew Point Humidity Pressure Visibility Wind Dir Wind Speed Gust Speed Precip Events Conditions
12:25 AM 45.0 °F 42.6 °F 43.0 °F 93% 29.71 in 9.0 mi NNE 4.6 mph - N/A   Overcast
12:55 AM 45.0 °F - 43.0 °F 93% 29.70 in 9.0 mi Calm Calm - N/A   Overcast
1:46 AM 45.0 °F 43.5 °F 43.0 °F 93% 29.69 in 10.0 mi East 3.5 mph - N/A   Overcast
1:55 AM 45.0 °F - 43.0 °F 93% 29.69 in 10.0 mi Calm Calm - N/A   Overcast
2:16 AM 45.0 °F 43.5 °F 42.1 °F 90% 29.68 in 10.0 mi ENE 3.5 mph - N/A   Overcast
2:40 AM 45.0 °F - 43.0 °F 93% 29.67 in 10.0 mi Calm Calm - N/A   Overcast
2:55 AM 46.0 °F - 42.1 °F 86% 29.66 in 10.0 mi Calm Calm - N/A   Overcast
3:55 AM 45.0 °F 43.5 °F 42.1 °F 90% 29.65 in 10.0 mi ENE 3.5 mph - N/A   Overcast
4:55 AM 45.0 °F 41.8 °F 42.1 °F 90% 29.63 in 9.0 mi ENE 5.8 mph - N/A   Overcast
5:55 AM 45.0 °F 43.5 °F 42.1 °F 90% 29.60 in 10.0 mi East 3.5 mph - N/A   Overcast
6:16 AM 44.1 °F 42.5 °F 41.0 °F 89% 29.60 in 9.0 mi ESE 3.5 mph - N/A   Scattered Clouds
6:55 AM 42.1 °F 40.2 °F 39.9 °F 92% 29.58 in 6.0 mi ENE 3.5 mph - N/A   Clear
7:55 AM 46.0 °F 41.4 °F 42.1 °F 86% 29.57 in 9.0 mi East 9.2 mph - N/A   Clear
8:55 AM 48.9 °F - 43.0 °F 80% 29.55 in 10.0 mi NE 9.2 mph - N/A   Clear
9:55 AM 51.1 °F - 43.0 °F 74% 29.54 in 10.0 mi East 12.7 mph - N/A   Clear
10:55 AM 55.0 °F - 43.0 °F 64% 29.52 in 10.0 mi ENE 11.5 mph - N/A   Clear
11:55 AM 57.9 °F - 43.0 °F 58% 29.49 in 10.0 mi ENE 16.1 mph - N/A   Clear
12:55 PM 60.1 °F - 42.1 °F 51% 29.45 in 10.0 mi ENE 17.3 mph - N/A   Clear
1:55 PM 63.0 °F - 41.0 °F 45% 29.43 in 10.0 mi ENE 19.6 mph - N/A   Clear
2:55 PM 63.0 °F - 41.0 °F 45% 29.42 in 10.0 mi ENE 16.1 mph - N/A   Clear
3:55 PM 63.0 °F - 42.1 °F 46% 29.40 in 10.0 mi ENE 13.8 mph - N/A   Clear
4:55 PM 61.0 °F - 43.0 °F 52% 29.40 in 10.0 mi ENE 12.7 mph - N/A   Clear
5:55 PM 55.9 °F - 41.0 °F 57% 29.40 in 10.0 mi East 8.1 mph - N/A   Clear
6:55 PM 52.0 °F - 42.1 °F 69% 29.41 in 10.0 mi NE 11.5 mph - N/A   Clear
7:55 PM 53.1 °F - 39.9 °F 61% 29.43 in 10.0 mi East 10.4 mph - N/A   Clear
8:55 PM 51.1 °F - 37.9 °F 61% 29.44 in 10.0 mi East 10.4 mph - N/A   Clear
9:55 PM 48.9 °F - 37.0 °F 64% 29.45 in 10.0 mi ESE 9.2 mph - N/A   Clear
10:55 PM 46.9 °F - 37.0 °F 68% 29.46 in 10.0 mi East 8.1 mph - N/A   Clear
11:55 PM 45.0 °F 43.5 °F 36.0 °F 71% 29.47 in 10.0 mi ENE 3.5 mph - N/A   Clear